Tracking 31027 objects as of 19-Jul-2025
HD Live streaming from Space Station
objects crossing your sky now

DELTA 1 DEB

Track DELTA 1 DEB now!
10-day predictions


NORAD ID: 12825
Int'l Code: 1978-026EW
Perigee: 875.5 km
Apogee: 962.6 km
Inclination: 99.4 °
Period: 103.2 minutes
Semi major axis: 7290 km
RCS: 0.046 m2 (small)
Launch date: March 5, 1978
Source: United States (US)
Launch site: AIR FORCE WESTERN TEST RANGE (AFWTR)

Note: This is SATELLITE DEBRIS
Your satellite tracking list
STARLINK-2062
Track 1 satellite(s)




NASA's NSSDC Master Catalog

Two Line Element Set (TLE):
1 12825U 78026EW  25199.56599667  .00000225  00000-0  19956-3 0  9992
2 12825  99.4101  64.6316 0059750 325.3660  63.9293 13.94773285258580
Source of the keplerian elements: AFSPC